{"data":{"norad_id":64133,"intl_designator":"2025-111L","name":"STARLINK-11716 [DTC]","alt_names":[],"object_type":"PAYLOAD","status":"ACTIVE","operator":null,"country":"US","launch_date":"2025-05-24","launch_site_code":"AFETR","launch_vehicle":null,"mission":null,"orbit_class":"UNKNOWN","rcs_meters":null,"size_class":null,"mass_kg":null,"dimensions":null,"purposes":["comms"],"wikipedia_slug":null,"has_3d_model":false,"image_url":null,"decayed_at":null,"tle_current":{"epoch":"2026-09-20T22:28:20.800704Z","epoch_age_seconds":102721,"freshness":"FRESH","line1":"1 64133U 25111L   26263.93635186  .00033476  00000+0  26312-3 0  9996","line2":"2 64133  42.9989 237.2044 0001337 253.8338 106.2382 15.70858264 77392","mean_motion":15.70858264,"eccentricity":0.0001337,"inclination_deg":42.9989,"raan_deg":237.2044,"arg_perigee_deg":253.8338,"mean_anomaly_deg":106.2382,"bstar":0.00026312,"rev_number":7739,"period_min":91.669632646119,"perigee_km":355.54244681688,"apogee_km":357.34327347148,"semimajor_km":6734.5798601442,"source":"CELESTRAK","updated_at":"2026-09-21T09:00:35.234545Z"}}}